Tracking 35331 objects as of 15-Sep-2026
HD Live streaming from Space Station
objects crossing your sky now

NOAA 16 DEB

Track NOAA 16 DEB now!
10-day predictions


NORAD ID: 41081
Int'l Code: 2000-055AQ
Launch date: September 21, 2000
Source: United States (US)
Launch site: AIR FORCE WESTERN TEST RANGE (AFWTR)

Note: This is SATELLITE DEBRIS
Your satellite tracking list
Your tracking list is empty




NASA's NSSDC Master Catalog

Two Line Element Set (TLE):
1 41081U 00055AQ  26257.88825727  .00000799  00000-0  35602-3 0  9997
2 41081  99.1860 131.7353 0137521  56.3613 305.0595 14.20801654557943
Source of the keplerian elements: AFSPC